Weather History for Grand Marais Airport, MN

Change the Weather History Date:

Wednesday, February 6, 2013

  Actual Average Record
Temperature  
Mean Temperature 4 °F -  
Max Temperature 12 °F 20 °F 66 °F (1997)
Min Temperature -5 °F 4 °F -18 °F (2007)
Degree Days  
Heating Degree Days 62    
Moisture  
Dew Point -1 °F    
Average Humidity 75    
Maximum Humidity 85    
Minimum Humidity 66    
Precipitation  
Precipitation 0.00 in - - ()
Sea Level Pressure  
Sea Level Pressure 30.02 in    
Wind  
Wind Speed 3 mph (ENE)    
Max Wind Speed 10 mph    
Max Gust Speed -    
Visibility 5 miles    
Events Snow    
Averages and records for this station are not official NWS values.
T = Trace of Precipitation, MM = Missing Value Source: NWS Daily Summary

Daily Weather History Graph

Daily Weather History Graph

Search for Another Location

Airport:

Trip Planner

Search our weather history database for the weather conditions in past years. The results will help you decide how hot, cold, wet, or windy it might be!

Date:

Astronomy

Feb. 06, 2013 Rise Set
Actual Time 7:21 AM CST 5:10 PM CST
Civil Twilight 6:48 AM CST 5:43 PM CST
Nautical Twilight 6:12 AM CST 6:19 PM CST
Astronomical Twilight 5:36 AM CST 6:55 PM CST
Moon 4:14 AM CST (2/6) 1:20 PM CST (2/6)
Length of Visible Light 10h 54m
Length of Day
9h 49m
Waning Crescent, 17% of the Moon is Illuminated
Feb 6
Waning Crescent
Feb 10
New
Feb 17
First Quarter
Feb 25
Full
Mar 4
Last Quarter

Hourly Weather History & Observations

Time (CST) Temp. Windchill Dew Point Humidity Pressure Visibility Wind Dir Wind Speed Gust Speed Precip Events Conditions
12:13 AM -5.8 °F - -11.2 °F 77% 29.95 in 10.0 mi Calm Calm - N/A   Overcast
12:34 AM -5.8 °F - -11.2 °F 77% 29.96 in 10.0 mi Calm Calm - N/A   Overcast
12:53 AM -4.0 °F - -11.2 °F 71% 29.95 in 10.0 mi Calm Calm - N/A   Overcast
1:13 AM -4.0 °F - -11.2 °F 71% 29.96 in 10.0 mi Calm Calm - N/A   Overcast
1:33 AM -2.2 °F - -9.4 °F 71% 29.97 in 10.0 mi Calm Calm - N/A   Overcast
1:53 AM -2.2 °F - -9.4 °F 71% 29.97 in 10.0 mi Calm Calm - N/A   Overcast
2:14 AM -2.2 °F - -9.4 °F 71% 29.96 in 10.0 mi Calm Calm - N/A   Overcast
2:33 AM -2.2 °F -10.4 °F -9.4 °F 71% 29.96 in 10.0 mi NNW 3.5 mph - N/A   Overcast
2:53 AM -0.4 °F -8.3 °F -9.4 °F 66% 29.96 in 10.0 mi North 3.5 mph - N/A   Overcast
3:14 AM -2.2 °F - -9.4 °F 71% 29.95 in 10.0 mi Calm Calm - N/A   Overcast
3:33 AM -2.2 °F -10.4 °F -9.4 °F 71% 29.96 in 10.0 mi NNW 3.5 mph - N/A   Overcast
3:53 AM -0.4 °F - -9.4 °F 66% 29.96 in 10.0 mi Calm Calm - N/A   Overcast
4:14 AM -0.4 °F - -9.4 °F 66% 29.97 in 10.0 mi Calm Calm - N/A   Overcast
4:34 AM -0.4 °F - -9.4 °F 66% 29.97 in 10.0 mi Calm Calm - N/A   Overcast
4:53 AM -0.4 °F - -9.4 °F 66% 29.97 in 10.0 mi Calm Calm - N/A   Overcast
5:14 AM -0.4 °F - -7.6 °F 72% 29.98 in 10.0 mi Calm Calm - N/A   Overcast
5:33 AM -0.4 °F - -7.6 °F 72% 29.98 in 10.0 mi Calm Calm - N/A   Overcast
5:53 AM -0.4 °F - -7.6 °F 72% 29.98 in 10.0 mi Calm Calm - N/A   Overcast
6:14 AM 1.4 °F - -7.6 °F 66% 29.98 in 10.0 mi Calm Calm - N/A   Overcast
6:33 AM 1.4 °F - -7.6 °F 66% 29.98 in 10.0 mi Calm Calm - N/A   Overcast
6:54 AM 1.4 °F - -7.6 °F 66% 29.99 in 10.0 mi Calm Calm - N/A   Overcast
7:13 AM 1.4 °F - -5.8 °F 72% 30.00 in 10.0 mi Calm Calm - N/A   Overcast
7:34 AM 1.4 °F - -5.8 °F 72% 30.00 in 10.0 mi Calm Calm - N/A   Overcast
7:54 AM 1.4 °F - -5.8 °F 72% 30.00 in 10.0 mi Calm Calm - N/A   Overcast
8:13 AM 3.2 °F - -5.8 °F 66% 30.00 in 10.0 mi Calm Calm - N/A   Overcast
8:33 AM 3.2 °F - -4.0 °F 72% 30.01 in 10.0 mi Calm Calm - N/A   Overcast
8:54 AM 5.0 °F - -2.2 °F 72% 30.02 in 10.0 mi Calm Calm - N/A   Overcast
9:33 AM 6.8 °F - -0.4 °F 72% 30.03 in 10.0 mi Calm Calm - N/A Snow Light Snow
9:53 AM 6.8 °F - 1.4 °F 79% 30.03 in 5.0 mi Calm Calm - N/A Snow Light Snow
10:14 AM 8.6 °F 2.0 °F 1.4 °F 73% 30.03 in 3.0 mi SE 3.5 mph - N/A Snow Light Snow
10:33 AM 8.6 °F 0.1 °F 1.4 °F 73% 30.03 in 2.0 mi ESE 4.6 mph - N/A Snow Light Snow
10:53 AM 8.6 °F -1.3 °F 1.4 °F 73% 30.03 in 2.5 mi ESE 5.8 mph - N/A Snow Light Snow
11:14 AM 8.6 °F 2.0 °F 3.2 °F 79% 30.04 in 2.5 mi ESE 3.5 mph - N/A Snow Light Snow
11:33 AM 8.6 °F 2.0 °F 3.2 °F 79% 30.03 in 3.0 mi East 3.5 mph - N/A Snow Light Snow
11:54 AM 10.4 °F 4.0 °F 3.2 °F 73% 30.03 in 4.0 mi East 3.5 mph - N/A Snow Light Snow
12:13 PM 10.4 °F 4.0 °F 3.2 °F 73% 30.02 in 2.0 mi ESE 3.5 mph - N/A Snow Light Snow
12:34 PM 10.4 °F 0.8 °F 3.2 °F 73% 30.02 in 2.5 mi SE 5.8 mph - N/A Snow Light Snow
12:54 PM 10.4 °F 2.2 °F 3.2 °F 73% 30.02 in 1.8 mi ESE 4.6 mph - N/A Snow Light Snow
1:13 PM 12.2 °F 6.1 °F 3.2 °F 67% 30.02 in 1.8 mi ENE 3.5 mph - N/A Snow Light Snow
1:33 PM 12.2 °F 4.3 °F 5.0 °F 73% 30.03 in 1.2 mi East 4.6 mph - N/A Snow Light Snow
1:54 PM 12.2 °F 4.3 °F 5.0 °F 73% 30.03 in 0.8 mi SE 4.6 mph - N/A Snow Light Snow
2:14 PM 12.2 °F 1.7 °F 5.0 °F 73% 30.02 in 1.2 mi ESE 6.9 mph - N/A Snow Light Snow
2:33 PM 12.2 °F 2.9 °F 5.0 °F 73% 30.02 in 0.8 mi East 5.8 mph - N/A Snow Light Snow
2:53 PM 10.4 °F 0.8 °F 5.0 °F 79% 30.02 in 1.5 mi East 5.8 mph - N/A Snow Light Snow
3:13 PM 10.4 °F -1.5 °F 5.0 °F 79% 30.02 in 1.8 mi East 8.1 mph - N/A Snow Light Snow
3:34 PM 10.4 °F -0.4 °F 6.8 °F 85% 30.02 in 1.8 mi ENE 6.9 mph - N/A Snow Light Snow
3:54 PM 10.4 °F -2.4 °F 5.0 °F 79% 30.02 in 1.5 mi ENE 9.2 mph - N/A Snow Light Snow
4:14 PM 10.4 °F -0.4 °F 5.0 °F 79% 30.02 in 2.0 mi ENE 6.9 mph - N/A Snow Light Snow
4:33 PM 10.4 °F -0.4 °F 5.0 °F 79% 30.02 in 2.0 mi ENE 6.9 mph - N/A Snow Light Snow
4:53 PM 10.4 °F -1.5 °F 5.0 °F 79% 30.02 in 1.8 mi ENE 8.1 mph - N/A Snow Light Snow
5:13 PM 10.4 °F -1.5 °F 6.8 °F 85% 30.02 in 2.0 mi ENE 8.1 mph - N/A Snow Light Snow
5:34 PM 10.4 °F -2.4 °F 6.8 °F 85% 30.03 in 1.8 mi ENE 9.2 mph - N/A Snow Light Snow
5:54 PM 10.4 °F -1.5 °F 5.0 °F 79% 30.04 in 2.0 mi NE 8.1 mph - N/A Snow Light Snow
6:14 PM 10.4 °F -2.4 °F 5.0 °F 79% 30.03 in 1.8 mi NE 9.2 mph - N/A Snow Light Snow
6:34 PM 8.6 °F -2.6 °F 3.2 °F 79% 30.04 in 1.5 mi NE 6.9 mph - N/A Snow Light Snow
6:54 PM 8.6 °F -3.7 °F 3.2 °F 79% 30.04 in 1.8 mi NE 8.1 mph - N/A Snow Light Snow
7:13 PM 8.6 °F -3.7 °F 3.2 °F 79% 30.05 in 1.8 mi NE 8.1 mph - N/A Snow Light Snow
7:34 PM 8.6 °F -3.7 °F 3.2 °F 79% 30.06 in 1.2 mi NNE 8.1 mph - N/A Snow Snow
7:53 PM 8.6 °F -1.3 °F 3.2 °F 79% 30.06 in 1.5 mi NNE 5.8 mph - N/A Snow Light Snow
8:13 PM 8.6 °F -2.6 °F 3.2 °F 79% 30.06 in 1.5 mi NNE 6.9 mph - N/A Snow Light Snow
8:34 PM 8.6 °F -2.6 °F 3.2 °F 79% 30.07 in 1.8 mi NNE 6.9 mph - N/A Snow Light Snow
8:53 PM 6.8 °F -5.9 °F 1.4 °F 79% 30.07 in 2.0 mi NNE 8.1 mph - N/A Snow Light Snow
9:13 PM 6.8 °F -5.9 °F 1.4 °F 79% 30.07 in 2.0 mi NNE 8.1 mph - N/A Snow Light Snow
9:33 PM 6.8 °F -4.8 °F 1.4 °F 79% 30.07 in 2.0 mi NNE 6.9 mph - N/A Snow Light Snow
9:54 PM 6.8 °F -4.8 °F 1.4 °F 79% 30.08 in 2.0 mi NE 6.9 mph - N/A Snow Light Snow
10:14 PM 6.8 °F -6.9 °F 1.4 °F 79% 30.08 in 3.0 mi NNE 9.2 mph - N/A Snow Light Snow
10:34 PM 6.8 °F -5.9 °F 1.4 °F 79% 30.08 in 2.5 mi NNE 8.1 mph - N/A Snow Light Snow
10:53 PM 6.8 °F -6.9 °F 1.4 °F 79% 30.08 in 3.0 mi NNE 9.2 mph - N/A Snow Light Snow
11:13 PM 6.8 °F -6.9 °F 1.4 °F 79% 30.08 in 5.0 mi NNE 9.2 mph - N/A Snow Light Snow
11:34 PM 6.8 °F -7.8 °F 1.4 °F 79% 30.08 in 5.0 mi NNE 10.4 mph - N/A Snow Light Snow
11:53 PM 6.8 °F -6.9 °F 1.4 °F 79% 30.09 in 5.0 mi NNE 9.2 mph - N/A Snow Light Snow